| time (UTC) | temp F | wind direction | speed MPH | gust MPH | rain 1hr in | rain 24hr in | rain mn in | humidity % | barometer mb |
| 20260906213114 | 75 | 101 | 1.0 | 2.0 | 0.00 | 0.00 | 0.00 | 43 | 1023.1 |
| 20260906212113 | 75 | 209 | 5.0 | 7.0 | 0.00 | 0.00 | 0.00 | 44 | 1023.6 |
| 20260906211108 | 80 | 12 | 2.0 | 2.0 | 0.00 | 0.00 | 0.00 | 37 | 1023.8 |
| 20260906210104 | 80 | 80 | 6.0 | 9.0 | 0.00 | 0.00 | 0.00 | 37 | 1023.1 |
| 20260906205102 | 80 | 85 | 7.0 | 7.0 | 0.00 | 0.00 | 0.00 | 38 | 1023.3 |
| 20260906204102 | 80 | 38 | 6.0 | 8.0 | 0.00 | 0.00 | 0.00 | 39 | 1023.3 |
| 20260906203102 | 82 | 34 | 9.0 | 11.0 | 0.00 | 0.00 | 0.00 | 39 | 1023.1 |
| 20260906202059 | 82 | 71 | 11.0 | 15.0 | 0.00 | 0.00 | 0.00 | 40 | 1023.4 |
| 20260906201058 | 81 | 44 | 5.0 | 8.0 | 0.00 | 0.00 | 0.00 | 40 | 1023.4 |
| 20260906200056 | 82 | 55 | 5.0 | 8.0 | 0.00 | 0.00 | 0.00 | 38 | 1023.5 |
| 20260906195054 | 82 | 86 | 7.0 | 8.0 | 0.00 | 0.00 | 0.00 | 39 | 1023.8 |
| 20260906194051 | 81 | 64 | 6.0 | 9.0 | 0.00 | 0.00 | 0.00 | 41 | 1023.6 |
| 20260906193046 | 83 | 114 | 7.0 | 9.0 | 0.00 | 0.00 | 0.00 | 39 | 1023.9 |
| 20260906192046 | 80 | 76 | 8.0 | 13.0 | 0.00 | 0.00 | 0.00 | 41 | 1023.8 |
| 20260906191046 | 80 | 65 | 7.0 | 9.0 | 0.00 | 0.00 | 0.00 | 41 | 1023.8 |
| 20260906190041 | 80 | 104 | 6.0 | 8.0 | 0.00 | 0.00 | 0.00 | 41 | 1023.8 |
| 20260906185039 | 80 | 86 | 6.0 | 8.0 | 0.00 | 0.00 | 0.00 | 43 | 1024.4 |
| 20260906184036 | 81 | 86 | 3.0 | 5.0 | 0.00 | 0.00 | 0.00 | 43 | 1024.4 |
| 20260906183033 | 81 | 129 | 4.0 | 5.0 | 0.00 | 0.00 | 0.00 | 40 | 1024.9 |
| 20260906182030 | 82 | 80 | 3.0 | 3.0 | 0.00 | 0.00 | 0.00 | 35 | 1024.7 |
| 20260906181027 | 82 | 57 | 4.0 | 8.0 | 0.00 | 0.00 | 0.00 | 32 | 1024.6 |
| 20260906180027 | 82 | 72 | 4.0 | 6.0 | 0.00 | 0.00 | 0.00 | 29 | 1025.1 |
| 20260906175026 | 83 | 78 | 5.0 | 6.0 | 0.00 | 0.00 | 0.00 | 29 | 1025.2 |
| 20260906174025 | 82 | 75 | 4.0 | 6.0 | 0.00 | 0.00 | 0.00 | 29 | 1025.5 |
| 20260906173022 | 81 | 42 | 4.0 | 5.0 | 0.00 | 0.00 | 0.00 | 29 | 1025.4 |
| 20260906172018 | 80 | 318 | 2.0 | 2.0 | 0.00 | 0.00 | 0.00 | 30 | 1025.4 |
| 20260906171014 | 80 | 269 | 3.0 | 5.0 | 0.00 | 0.00 | 0.00 | 30 | 1025.8 |
| 20260906170008 | 80 | 55 | 2.0 | 2.0 | 0.00 | 0.00 | 0.00 | 30 | 1025.7 |
| 20260906165007 | 81 | 345 | 6.0 | 6.0 | 0.00 | 0.00 | 0.00 | 30 | 1025.7 |
| 20260906164002 | 80 | 235 | 3.0 | 3.0 | 0.00 | 0.00 | 0.00 | 30 | 1026.0 |
| 20260906163002 | 80 | 78 | 1.0 | 1.0 | 0.00 | 0.00 | 0.00 | 31 | 1025.7 |
| 20260906162001 | 78 | 180 | 0.0 | 1.0 | 0.00 | 0.00 | 0.00 | 31 | 1025.8 |
| 20260906161000 | 77 | 255 | 3.0 | 3.0 | 0.00 | 0.00 | 0.00 | 33 | 1026.1 |
| 20260906155958 | 77 | 30 | 1.0 | 2.0 | 0.00 | 0.00 | 0.00 | 35 | 1026.0 |
| 20260906154953 | 74 | 122 | 0.0 | 0.0 | 0.00 | 0.00 | 0.00 | 39 | 1026.0 |
| 20260906153952 | 72 | 87 | 0.0 | 0.0 | 0.00 | 0.00 | 0.00 | 43 | 1026.0 |
| 20260906152953 | 71 | 76 | 1.0 | 1.0 | 0.00 | 0.00 | 0.00 | 45 | 1026.1 |
| 20260906151952 | 69 | 84 | 0.0 | 0.0 | 0.00 | 0.00 | 0.00 | 47 | 1026.3 |
| 20260906150949 | 69 | 84 | 0.0 | 0.0 | 0.00 | 0.00 | 0.00 | 46 | 1026.6 |
| 20260906145949 | 69 | 70 | 4.0 | 5.0 | 0.00 | 0.00 | 0.00 | 47 | 1026.3 |
| 20260906144949 | 65 | 87 | 2.0 | 2.0 | 0.00 | 0.00 | 0.00 | 50 | 1026.5 |
| 20260906143945 | 66 | 68 | 2.0 | 3.0 | 0.00 | 0.00 | 0.00 | 51 | 1026.2 |
| 20260906142942 | 63 | 67 | 1.0 | 1.0 | 0.00 | 0.00 | 0.00 | 54 | 1026.5 |
| 20260906141937 | 62 | 103 | 2.0 | 2.0 | 0.00 | 0.00 | 0.00 | 57 | 1026.3 |
| 20260906140937 | 61 | 76 | 1.0 | 2.0 | 0.00 | 0.00 | 0.00 | 59 | 1026.2 |
| 20260906135936 | 62 | 108 | 0.0 | 0.0 | 0.00 | 0.00 | 0.00 | 56 | 1026.2 |
| 20260906134931 | 59 | 356 | 1.0 | 1.0 | 0.00 | 0.00 | 0.00 | 61 | 1026.2 |
| 20260906133927 | 57 | 252 | 0.0 | 0.0 | 0.00 | 0.00 | 0.00 | 64 | 1026.6 |
| 20260906132924 | 53 | 287 | 0.0 | 1.0 | 0.00 | 0.00 | 0.00 | 70 | 1026.3 |
| 20260906131920 | 52 | 294 | 2.0 | 2.0 | 0.00 | 0.00 | 0.00 | 70 | 1026.5 |
| 20260906130917 | 51 | 276 | 1.0 | 1.0 | 0.00 | 0.00 | 0.00 | 71 | 1026.6 |
| 20260906125916 | 50 | 277 | 0.0 | 0.0 | 0.00 | 0.00 | 0.00 | 74 | 1026.5 |
| 20260906124914 | 48 | 277 | 1.0 | 1.0 | 0.00 | 0.00 | 0.00 | 77 | 1026.2 |
| 20260906123909 | 47 | 278 | 1.0 | 1.0 | 0.00 | 0.00 | 0.00 | 80 | 1026.3 |
| 20260906122909 | 48 | 289 | 1.0 | 2.0 | 0.00 | 0.00 | 0.00 | 79 | 1026.6 |
| 20260906121907 | 48 | 83 | 0.0 | 0.0 | 0.00 | 0.00 | 0.00 | 79 | 1026.5 |
| 20260906120904 | 50 | 90 | 1.0 | 1.0 | 0.00 | 0.00 | 0.00 | 74 | 1026.1 |
| 20260906115901 | 48 | 188 | 1.0 | 1.0 | 0.00 | 0.00 | 0.00 | 77 | 1026.2 |
| 20260906114856 | 49 | 264 | 0.0 | 0.0 | 0.00 | 0.00 | 0.00 | 76 | 1026.2 |
| 20260906113853 | 48 | 216 | 1.0 | 2.0 | 0.00 | 0.00 | 0.00 | 78 | 1026.2 |
| 20260906112847 | 50 | 190 | 0.0 | 0.0 | 0.00 | 0.00 | 0.00 | 75 | 1026.2 |
| 20260906111843 | 50 | 146 | 0.0 | 0.0 | 0.00 | 0.00 | 0.00 | 75 | 1026.1 |
| 20260906110838 | 50 | 152 | 1.0 | 1.0 | 0.00 | 0.00 | 0.00 | 75 | 1026.1 |
| 20260906105838 | 52 | 194 | 0.0 | 0.0 | 0.00 | 0.00 | 0.00 | 71 | 1026.0 |
| 20260906104836 | 53 | 226 | 1.0 | 1.0 | 0.00 | 0.00 | 0.00 | 70 | 1026.1 |
| 20260906103833 | 52 | 204 | 2.0 | 2.0 | 0.00 | 0.00 | 0.00 | 71 | 1025.8 |
| 20260906102834 | 50 | 265 | 3.0 | 3.0 | 0.00 | 0.00 | 0.00 | 74 | 1025.7 |
| 20260906101828 | 51 | 225 | 1.0 | 1.0 | 0.00 | 0.00 | 0.00 | 74 | 1026.0 |
| 20260906100824 | 52 | 274 | 1.0 | 1.0 | 0.00 | 0.00 | 0.00 | 72 | 1026.1 |
| 20260906095824 | 52 | 227 | 0.0 | 1.0 | 0.00 | 0.00 | 0.00 | 72 | 1026.3 |
| 20260906094819 | 52 | 286 | 1.0 | 1.0 | 0.00 | 0.00 | 0.00 | 73 | 1026.1 |
| 20260906093817 | 51 | 249 | 2.0 | 2.0 | 0.00 | 0.00 | 0.00 | 72 | 1025.7 |
| 20260906092813 | 52 | 282 | 1.0 | 1.0 | 0.00 | 0.00 | 0.00 | 71 | 1025.8 |
| 20260906091809 | 50 | 268 | 2.0 | 2.0 | 0.00 | 0.00 | 0.00 | 75 | 1025.8 |
| 20260906090807 | 51 | 319 | 0.0 | 0.0 | 0.00 | 0.00 | 0.00 | 72 | 1025.7 |
| 20260906085806 | 52 | 208 | 0.0 | 1.0 | 0.00 | 0.00 | 0.00 | 70 | 1025.6 |
| 20260906084800 | 53 | 269 | 3.0 | 3.0 | 0.00 | 0.00 | 0.00 | 69 | 1025.6 |
| 20260906083800 | 51 | 236 | 1.0 | 1.0 | 0.00 | 0.00 | 0.00 | 72 | 1026.1 |
| 20260906082756 | 51 | 267 | 3.0 | 3.0 | 0.00 | 0.00 | 0.00 | 71 | 1025.7 |
| 20260906081753 | 51 | 224 | 2.0 | 2.0 | 0.00 | 0.00 | 0.00 | 72 | 1026.0 |
| 20260906080751 | 51 | 181 | 1.0 | 1.0 | 0.00 | 0.00 | 0.00 | 70 | 1026.1 |
| 20260906075747 | 51 | 174 | 2.0 | 2.0 | 0.00 | 0.00 | 0.00 | 73 | 1026.2 |
| 20260906074742 | 51 | 192 | 1.0 | 1.0 | 0.00 | 0.00 | 0.00 | 72 | 1026.2 |
| 20260906073741 | 53 | 260 | 1.0 | 1.0 | 0.00 | 0.00 | 0.00 | 69 | 1026.2 |
| 20260906072737 | 53 | 279 | 2.0 | 3.0 | 0.00 | 0.00 | 0.00 | 67 | 1026.1 |
| 20260906071735 | 52 | 356 | 1.0 | 1.0 | 0.00 | 0.00 | 0.00 | 70 | 1026.5 |
| 20260906070731 | 53 | 241 | 1.0 | 1.0 | 0.00 | 0.00 | 0.00 | 68 | 1026.2 |
| 20260906065726 | 53 | 247 | 0.0 | 0.0 | 0.00 | 0.00 | 0.00 | 70 | 1026.6 |
| 20260906064722 | 53 | 239 | 1.0 | 1.0 | 0.00 | 0.00 | 0.00 | 69 | 1026.5 |
| 20260906063719 | 54 | 272 | 3.0 | 3.0 | 0.00 | 0.00 | 0.00 | 68 | 1026.2 |
| 20260906062716 | 55 | 239 | 3.0 | 5.0 | 0.00 | 0.00 | 0.00 | 67 | 1026.1 |
| 20260906061711 | 55 | 222 | 1.0 | 1.0 | 0.00 | 0.00 | 0.00 | 66 | 1025.8 |
| 20260906060708 | 55 | 286 | 2.0 | 2.0 | 0.00 | 0.00 | 0.00 | 65 | 1026.2 |
| 20260906055707 | 57 | 278 | 4.0 | 5.0 | 0.00 | 0.02 | 0.02 | 63 | 1025.8 |
| 20260906054703 | 55 | 212 | 2.0 | 2.0 | 0.00 | 0.02 | 0.02 | 66 | 1026.0 |
| 20260906053700 | 54 | 213 | 3.0 | 3.0 | 0.00 | 0.02 | 0.02 | 67 | 1026.0 |
| 20260906052656 | 54 | 270 | 0.0 | 0.0 | 0.00 | 0.02 | 0.02 | 70 | 1026.1 |
| 20260906051655 | 54 | 123 | 1.0 | 1.0 | 0.00 | 0.02 | 0.02 | 70 | 1025.8 |
| 20260906050650 | 54 | 116 | 1.0 | 1.0 | 0.00 | 0.02 | 0.02 | 67 | 1025.7 |
| 20260906045649 | 57 | 219 | 0.0 | 1.0 | 0.00 | 0.02 | 0.02 | 64 | 1025.7 |
| 20260906044647 | 56 | 282 | 0.0 | 0.0 | 0.00 | 0.02 | 0.02 | 65 | 1025.6 |
| 20260906043644 | 56 | 220 | 0.0 | 1.0 | 0.00 | 0.02 | 0.02 | 64 | 1025.7 |
| 20260906042645 | 58 | 261 | 1.0 | 1.0 | 0.00 | 0.02 | 0.02 | 63 | 1025.7 |
| 20260906041640 | 58 | 263 | 1.0 | 1.0 | 0.00 | 0.02 | 0.02 | 62 | 1025.7 |
| 20260906040636 | 57 | 163 | 1.0 | 1.0 | 0.00 | 0.02 | 0.02 | 63 | 1025.8 |
| 20260906035633 | 58 | 231 | 1.0 | 1.0 | 0.00 | 0.02 | 0.02 | 63 | 1025.5 |
| 20260906034629 | 58 | 232 | 0.0 | 1.0 | 0.00 | 0.02 | 0.02 | 63 | 1025.8 |
| 20260906033625 | 59 | 229 | 1.0 | 2.0 | 0.00 | 0.02 | 0.02 | 62 | 1025.8 |
| 20260906032622 | 58 | 211 | 2.0 | 2.0 | 0.00 | 0.02 | 0.02 | 61 | 1026.1 |
| 20260906031617 | 58 | 278 | 4.0 | 5.0 | 0.00 | 0.02 | 0.02 | 65 | 1025.7 |
| 20260906030617 | 60 | 251 | 2.0 | 3.0 | 0.00 | 0.02 | 0.02 | 59 | 1025.5 |
| 20260906025612 | 60 | 261 | 4.0 | 5.0 | 0.00 | 0.02 | 0.02 | 60 | 1025.7 |
| 20260906024612 | 58 | 286 | 1.0 | 2.0 | 0.00 | 0.02 | 0.02 | 65 | 1025.6 |
| 20260906023609 | 60 | 278 | 2.0 | 2.0 | 0.00 | 0.02 | 0.02 | 62 | 1025.2 |
| 20260906022604 | 60 | 246 | 1.0 | 2.0 | 0.00 | 0.02 | 0.02 | 63 | 1025.4 |
| 20260906021601 | 62 | 280 | 4.0 | 5.0 | 0.00 | 0.02 | 0.02 | 61 | 1025.1 |
| 20260906020600 | 64 | 234 | 1.0 | 2.0 | 0.00 | 0.02 | 0.02 | 57 | 1025.0 |
| 20260906015559 | 62 | 272 | 3.0 | 3.0 | 0.00 | 0.02 | 0.02 | 60 | 1025.1 |
| 20260906014559 | 63 | 278 | 4.0 | 5.0 | 0.00 | 0.02 | 0.02 | 58 | 1025.1 |
| 20260906013557 | 64 | 272 | 4.0 | 5.0 | 0.00 | 0.02 | 0.02 | 57 | 1024.9 |
| 20260906012553 | 65 | 258 | 1.0 | 1.0 | 0.00 | 0.02 | 0.02 | 59 | 1025.4 |
| 20260906011549 | 68 | 296 | 2.0 | 2.0 | 0.00 | 0.02 | 0.02 | 57 | 1025.4 |
| 20260906010544 | 68 | 339 | 1.0 | 2.0 | 0.00 | 0.02 | 0.02 | 53 | 1025.4 |
| 20260906005539 | 70 | 231 | 4.0 | 5.0 | 0.00 | 0.02 | 0.02 | 50 | 1025.4 |
| 20260906004538 | 70 | 257 | 5.0 | 6.0 | 0.00 | 0.02 | 0.02 | 49 | 1025.2 |
| 20260906003534 | 70 | 250 | 6.0 | 7.0 | 0.00 | 0.02 | 0.02 | 49 | 1025.4 |
| 20260906002530 | 71 | 252 | 4.0 | 6.0 | 0.00 | 0.02 | 0.02 | 50 | 1025.6 |
| 20260906001526 | 73 | 255 | 3.0 | 3.0 | 0.00 | 0.02 | 0.02 | 47 | 1026.0 |
| 20260906000523 | 75 | 170 | 2.0 | 2.0 | 0.00 | 0.02 | 0.02 | 45 | 1026.2 |
| 20260905235523 | 74 | 161 | 1.0 | 1.0 | 0.00 | 0.02 | 0.02 | 46 | 1026.0 |
| 20260905234520 | 73 | 76 | 1.0 | 1.0 | 0.00 | 0.02 | 0.02 | 50 | 1026.1 |
| 20260905233515 | 73 | 110 | 1.0 | 1.0 | 0.00 | 0.02 | 0.02 | 48 | 1026.3 |
| 20260905232510 | 70 | 264 | 1.0 | 2.0 | 0.00 | 0.02 | 0.02 | 49 | 1026.2 |
| 20260905231507 | 65 | 266 | 9.0 | 9.0 | 0.07 | 0.02 | 0.02 | 64 | 1026.0 |
| 20260905230502 | 72 | 239 | 3.0 | 3.0 | 0.05 | 0.01 | 0.01 | 65 | 1025.5 |
| 20260905225501 | 78 | 270 | 1.0 | 1.0 | 0.00 | 0.00 | 0.00 | 33 | 1024.9 |
| 20260905224457 | 78 | 333 | 1.0 | 1.0 | 0.00 | 0.00 | 0.00 | 33 | 1024.6 |
| 20260905223454 | 79 | 74 | 4.0 | 5.0 | 0.00 | 0.00 | 0.00 | 33 | 1024.4 |
| 20260905222449 | 79 | 45 | 0.0 | 1.0 | 0.00 | 0.00 | 0.00 | 33 | 1024.4 |
| 20260905221447 | 79 | 19 | 1.0 | 2.0 | 0.00 | 0.00 | 0.00 | 33 | 1024.5 |
| 20260905220445 | 79 | 71 | 3.0 | 3.0 | 0.00 | 0.00 | 0.00 | 33 | 1024.4 |
| 20260905215439 | 80 | 63 | 4.0 | 5.0 | 0.00 | 0.00 | 0.00 | 32 | 1024.5 |
| 20260905214437 | 79 | 340 | 2.0 | 2.0 | 0.00 | 0.00 | 0.00 | 34 | 1024.5 |